This is the latest recevied weather packets stored in our database for station/object vk4vs. If no packets are shown the sender has not sent any weather packets the latest 1 day(s).
| Time | Temp. | Humidity | Pressure | Rain* | Wind** | Luminosity | Snow |
|---|---|---|---|---|---|---|---|
| 1778106654 | 13.33° C | 71% | 1017 hPa | 0 mm | - | - | - |
| 1778104854 | 12.22° C | 78% | 1016.8 hPa | 0 mm | - | - | - |
| 1778097654 | 9.44° C | 98% | 1015.8 hPa | 0 mm | - | - | - |
| 1778094054 | 10° C | 98% | 1015.4 hPa | 0 mm | - | - | - |
| 1778076054 | 13.89° C | 98% | 1016.7 hPa | 0 mm | - | - | - |
| 1778072454 | 13.33° C | 98% | 1017.1 hPa | 0 mm | - | - | - |
| 1778063454 | 13.33° C | 98% | 1017.6 hPa | 11.68 mm | - | - | - |
| 1778061654 | 13.89° C | 98% | 1017.7 hPa | 11.68 mm | - | - | - |
| 1778059854 | 13.89° C | 98% | 1017.6 hPa | 0 mm | - | - | - |
| 1778056253 | 13.89° C | 97% | 1016.7 hPa | 5.08 mm | - | - | - |
| 1778049054 | 15.56° C | 92% | 1015.9 hPa | 0 mm | - | - | - |
| 1778047253 | 15.56° C | 91% | 1016 hPa | 0 mm | - | - | - |
| 1778045453 | 16.67° C | 88% | 1015.9 hPa | 0 mm | - | - | - |
| 1778043653 | 16.67° C | 88% | 1016 hPa | 0 mm | - | - | - |
| 1778041854 | 17.78° C | 82% | 1016 hPa | 0 mm | - | - | - |
| 1778038254 | 17.78° C | 85% | 1016.6 hPa | 0 mm | - | - | - |
| 1778036453 | 16.67° C | 87% | 1016.7 hPa | 0 mm | - | - | - |
| 1778034653 | 16.11° C | 91% | 1017.3 hPa | 0 mm | - | - | - |
| 1778031053 | 15° C | 98% | 1018.2 hPa | 0 mm | - | - | - |
| 1778029254 | 15° C | 99% | 1018.4 hPa | 0 mm | - | - | - |
* Rain latest hour (hover to see other rain measurements)
** Current wind speed in m/s (hover to see current wind gust speed)